Flag for Greece Weather past 2 weeks in Iráklion, Crete, Greece

Now
48 °F

Passing clouds.


Feels Like: 43 °F
Forecast: 55 / 67 °F
Wind: 12 mph from South

Location: Heraklion Airport

Current Time: Mar 5, 2015 at 6:47:02 AM

Latest Report: Mar 5, 2015 at 5:50 AM


Visibility: N/A

Pressure: 30.12 "Hg

Humidity: 82%

Dew point: 43 °F

Location of IráklionLocation

Historic Weather in Iráklion — Graph

°F

Iráklion temperature yesterday

Maximum temperature yesterday: 64 °F (at 11:50 AM)
Minimum temperature yesterday: 52 °F (at 12:50 AM)
Average temperature yesterday: 58 °F

Past Weeks' High & Low Weather Summary

 TemperatureHumidityPressure
High66 °F (Feb 26, 10:50 AM)94% (Feb 23, 7:50 AM)30.33 "Hg (Feb 23, 7:50 AM)
Low39 °F (Feb 18, 9:20 AM)30% (Mar 3, 8:20 AM)29.45 "Hg (Mar 5, 3:50 AM)
Average54 °F70%30.01 "Hg
* Reported Feb 18 4:50 AM — Mar 5 4:50 AM, Iráklion, Weather by CustomWeather, © 2015

Note: Actual official high and low records may vary slightly from our data, if they occured in-between our weather recording intervals... More about our weather records

Advertising

Iráklion weather history for previous 24 hours

 ConditionsComfort  
Time TempWeatherWind HumidityBarometerVisibility
4:50 AM
Thu, Mar 5
48 °FPassing clouds.9 mph82%30.12 "HgN/A
3:50 AM50 °FPassing clouds.12 mph88%29.45 "HgN/A
2:50 AM50 °FPassing clouds.5 mph88%30.15 "HgN/A
2:20 AM50 °FPassing clouds.6 mph88%30.18 "HgN/A
1:50 AM50 °FPassing clouds.6 mph88%30.18 "HgN/A
1:20 AM52 °FPassing clouds.7 mph82%30.21 "HgN/A
12:50 AM52 °FPassing clouds.6 mph82%30.21 "HgN/A
12:20 AM52 °FPassing clouds.5 mph82%30.21 "HgN/A
11:20 PM
Wed, Mar 4
52 °FPassing clouds.5 mph88%30.21 "HgN/A
10:50 PM52 °FPassing clouds.3 mph88%30.21 "HgN/A
10:20 PM55 °FPassing clouds.5 mph88%30.21 "HgN/A
9:50 PM55 °FPassing clouds.3 mph88%30.21 "HgN/A
9:20 PM59 °FPassing clouds.3 mph72%30.21 "HgN/A
8:50 PM59 °FPassing clouds.10 mph72%30.21 "HgN/A
8:20 PM59 °FPassing clouds.9 mph77%30.21 "HgN/A
7:50 PM59 °FPassing clouds.12 mph77%30.21 "HgN/A
7:20 PM59 °FPassing clouds.10 mph77%30.21 "HgN/A
6:50 PM59 °FPassing clouds.8 mph77%30.21 "HgN/A
6:20 PM59 °FPassing clouds.8 mph77%30.21 "HgN/A
5:50 PM59 °FScattered clouds.8 mph77%30.21 "HgN/A
5:20 PM61 °FScattered clouds.8 mph72%30.21 "HgN/A
4:50 PM61 °FScattered clouds.8 mph72%30.21 "HgN/A
4:20 PM64 °FPartly sunny.9 mph73%30.21 "HgN/A
3:50 PM64 °FPartly sunny.10 mph73%30.21 "HgN/A
3:20 PM63 °FPartly sunny.9 mph77%30.21 "HgN/A
2:50 PM63 °FPartly sunny.8 mph77%30.21 "HgN/A
2:20 PM64 °FScattered clouds.9 mph73%30.21 "HgN/A
1:50 PM64 °FScattered clouds.9 mph73%30.21 "HgN/A
1:20 PM64 °FScattered clouds.9 mph73%30.24 "HgN/A
12:50 PM64 °FScattered clouds.9 mph73%30.24 "HgN/A
12:20 PM64 °FScattered clouds.7 mph78%30.24 "HgN/A
11:50 AM64 °FScattered clouds.7 mph78%30.24 "HgN/A
11:20 AM63 °FPassing clouds.6 mph77%30.24 "HgN/A
10:50 AM63 °FPassing clouds.5 mph77%30.24 "HgN/A
10:20 AM63 °FScattered clouds.5 mph77%30.24 "HgN/A
9:50 AM61 °FScattered clouds.2 mph83%30.24 "HgN/A
9:20 AM61 °FScattered clouds.No wind77%30.24 "HgN/A
8:50 AM61 °FScattered clouds.3 mph77%30.21 "HgN/A
8:20 AM57 °FPartly sunny.3 mph82%30.21 "HgN/A
7:50 AM55 °FPartly sunny.8 mph82%30.21 "HgN/A
7:20 AM52 °FPartly sunny.7 mph88%30.15 "HgN/A
6:50 AM52 °FPassing clouds.7 mph88%30.15 "HgN/A
6:20 AM52 °FPassing clouds.8 mph82%30.15 "HgN/A
Weather by CustomWeather, © 2015

See weather overviewHow to use our weather pages